AO-07 1 07530U 74089B 22216.55079056 -.00000029 00000-0 10507-3 0 9991 2 07530 101.9074 196.5781 0011987 311.5605 161.4545 12.53656132183498 UO-11 1 14781U 84021B 22216.80592722 .00000350 00000-0 48398-4 0 9998 2 14781 97.6201 202.0444 0008986 153.3101 206.8578 14.83739868 68219 LO-19 1 20442U 90005G 22216.48626794 .00000022 00000-0 24801-4 0 9998 2 20442 98.7972 182.0900 0012388 32.6491 327.5456 14.33074843699983 HUBBLE 1 20580U 90037B 22216.39750760 .00000927 00000-0 43711-4 0 9992 2 20580 28.4686 211.0799 0002572 186.7783 289.7980 15.10725077573470 MET-2/21 1 22782U 93055A 22216.43661800 -.00000027 00000-0 -37352-4 0 9999 2 22782 82.5513 336.1533 0021705 210.0840 214.8218 13.83855985460642 AO-27 1 22825U 93061C 22216.57764066 -.00000003 00000-0 16810-4 0 9996 2 22825 98.8844 248.6261 0007339 271.6941 88.3400 14.30183776505309 IO-26 1 22826U 93061D 22216.51925962 .00000011 00000-0 22167-4 0 9995 2 22826 98.8788 248.4427 0007898 256.4782 103.5520 14.30531043505287 FO-29 1 24278U 96046B 22216.49637656 -.00000015 00000-0 18903-4 0 9999 2 24278 98.5151 233.5784 0350733 158.4837 203.1467 13.53117977282103 NOAA-15 1 25338U 98030A 22216.75928051 .00000083 00000-0 53086-4 0 9998 2 25338 98.6417 245.6572 0010969 151.4070 208.7714 14.26157465260156 GO-32 1 25397U 98043D 22216.42732452 .00000012 00000-0 25166-4 0 9999 2 25397 98.8201 167.0293 0001266 22.1253 337.9979 14.23764178250258 ISS 1 25544U 98067A 22216.87392847 .00004933 00000-0 93604-4 0 9996 2 25544 51.6435 95.4112 0005287 82.6404 341.1630 15.50232030352733 NO-44 1 26931U 01043C 22216.54727028 -.00000013 00000-0 26799-4 0 9999 2 26931 67.0516 294.2594 0006987 258.1453 101.8865 14.30721306 88283 SO-50 1 27607U 02058C 22216.55708613 .00000224 00000-0 51281-4 0 9994 2 27607 64.5546 154.6907 0080465 285.2036 74.0179 14.76188235 55479 CO-55 1 27844U 03031E 22216.53922449 .00000088 00000-0 58895-4 0 9998 2 27844 98.6788 223.4995 0009200 329.5250 30.5393 14.22475029990742 CO-57 1 27848U 03031J 22216.23578552 .00000071 00000-0 51846-4 0 9992 2 27848 98.6833 223.7102 0009361 345.3651 14.7254 14.22029160990470 RS-22 1 27939U 03042A 22216.74388560 .00000261 00000-0 54950-4 0 9999 2 27939 98.1987 357.4685 0013838 59.7028 300.5551 14.67412709 8127 NOAA-18 1 28654U 05018A 22216.79092478 .00000089 00000-0 72025-4 0 9995 2 28654 98.9469 287.1840 0014176 190.7118 169.3753 14.12760658886891 CO-58 1 28895U 05043F 22216.41743225 .00000302 00000-0 66121-4 0 9990 2 28895 98.1126 347.0735 0016330 355.1652 4.9390 14.64411696894435 Falconsat-3 1 30776U 07006E 22216.66881793 .00021699 00000-0 29625-3 0 9991 2 30776 35.4307 303.6733 0002857 149.1367 210.9534 15.56530323857091 CO-65 1 32785U 08021C 22216.45756119 .00000781 00000-0 87074-4 0 9993 2 32785 97.6606 185.7973 0014247 76.5519 283.7286 14.89723725773632 AAUSAT2 1 32788U 08021F 22216.47605803 .00001453 00000-0 12840-3 0 9996 2 32788 97.5354 200.1063 0010391 327.7120 32.3465 14.97799353775628 DO-64 1 32789U 08021G 22216.52304260 .00005277 00000-0 28792-3 0 9997 2 32789 97.3374 241.1082 0011448 148.6167 211.5750 15.14709740779308 CO-66 1 32791U 08021J 22216.16910353 .00001032 00000-0 10477-3 0 9992 2 32791 97.6145 190.9604 0013711 37.2620 322.9548 14.92868915774394 RS-30 1 32953U 08025A 22216.66826648 .00000024 00000-0 10000-3 0 9996 2 32953 82.5046 153.9592 0019281 151.3742 208.8401 12.43112235644323 PRISM 1 33493U 09002B 22216.50833643 .00002257 00000-0 18565-3 0 9992 2 33493 98.2276 205.8115 0017569 26.7047 333.5076 15.00148626736189 NOAA-19 1 33591U 09005A 22216.79770838 .00000088 00000-0 72344-4 0 9997 2 33591 99.1450 251.9430 0014709 55.2095 305.0458 14.12594880695278 SRMSAT 1 37841U 11058D 22216.73165485 .00000314 00000-0 27320-4 0 9996 2 37841 19.9731 323.0966 0011819 153.7955 0.3436 14.10763840558287 HRBE 1 37855U 11061F 22216.32485983 .00003373 00000-0 15136-3 0 9997 2 37855 101.7156 0.7741 0151610 278.7712 79.6360 15.12969639588472 RS-40 1 38735U 12041C 22216.48331781 .00000034 00000-0 17386-3 0 9997 2 38735 82.4724 235.5414 0015929 266.3526 93.5735 12.42587150454487 ZACUBE-1 1 39417U 13066B 22216.69629279 .00000607 00000-0 80174-4 0 9990 2 39417 97.6396 186.0281 0056084 245.8959 113.6382 14.82483831470273 Delfi-N3xt 1 39428U 13066N 22216.81172452 .00000903 00000-0 14525-3 0 9997 2 39428 97.8141 149.0966 0118284 122.7579 238.5092 14.69319794465816 GOMX-1 1 39430U 13066Q 22216.69430696 .00000379 00000-0 76672-4 0 9992 2 39430 97.8055 121.1352 0147656 252.7357 105.7647 14.60288451463338 LO-74 1 39440U 13066AA 22216.41736590 .00000772 00000-0 11105-3 0 9991 2 39440 97.7286 171.9674 0078020 337.0581 22.7151 14.77142767467360 AO-73 1 39444U 13066AE 22216.47504224 .00000656 00000-0 83912-4 0 9995 2 39444 97.6275 188.2289 0055049 234.1936 125.4156 14.83590983468643 SPROUT 1 39770U 14029E 22216.76422663 .00003088 00000-0 31522-3 0 9996 2 39770 97.9463 334.0254 0007212 290.4466 69.5993 14.91363642444866 DTUSAT-2 1 40030U 14033W 22216.52663607 .00000688 00000-0 77019-4 0 9996 2 40030 97.9373 149.4932 0010087 254.1673 105.8432 14.90111480440801 EO-80 1 40032U 14033Y 22216.36547681 .00000870 00000-0 95956-4 0 9996 2 40032 97.9377 149.3454 0010067 256.0982 103.9116 14.90083456440750 HODOYOSHI-1 1 40299U 14070B 22216.83289329 .00002106 00000-0 81276-4 0 9990 2 40299 97.2405 283.5422 0011338 333.4889 133.5049 15.27314970430442 FIREBIRD FU3 1 40377U 15003B 22216.55334027 .00007219 00000-0 21211-3 0 9991 2 40377 99.0937 92.2309 0097103 221.4614 137.9227 15.30948317415771 FIREBIRD FU4 1 40378U 15003C 22216.64114793 .00006921 00000-0 20287-3 0 9999 2 40378 99.0939 92.5599 0097026 220.7923 138.6022 15.31050635415800 GRIFEX 1 40379U 15003D 22216.59115997 .00004165 00000-0 14810-3 0 9994 2 40379 99.1067 77.8784 0112720 265.6185 93.2162 15.23947240414968 XW-2A 1 40903U 15049E 22216.75440994 .00012029 00000-0 17908-3 0 9992 2 40903 97.1751 275.4078 0007267 305.2202 195.5373 15.55243634386768 XW-2C 1 40906U 15049H 22216.74599495 .00002140 00000-0 10395-3 0 9991 2 40906 97.4925 219.7857 0013525 183.0126 287.1126 15.19470710380253 XW-2D 1 40907U 15049J 22216.74785024 .00002492 00000-0 11811-3 0 9991 2 40907 97.4914 219.8103 0013006 177.9479 293.5349 15.20178018380306 LILACSAT-2 1 40908U 15049K 22216.54977051 .00001143 00000-0 62874-4 0 9991 2 40908 97.5174 216.6649 0014385 204.0452 271.8400 15.16016701379771 XW-2E 1 40909U 15049L 22216.54044810 .00004120 00000-0 17160-3 0 9995 2 40909 97.4644 224.2418 0012558 157.7003 322.6783 15.24230065380735 XW-2F 1 40910U 15049M 22216.74684094 .00004047 00000-0 17120-3 0 9997 2 40910 97.4724 223.5924 0013674 158.7277 317.4320 15.23698061380534 XW-2B 1 40911U 15049N 22216.83756505 .00002424 00000-0 11536-3 0 9997 2 40911 97.4910 220.4857 0012901 179.1177 265.8142 15.20061241380204 DCBB 1 40912U 15049P 22216.52662301 .00004911 00000-0 18820-3 0 9990 2 40912 97.4357 227.7210 0014238 127.9074 23.3208 15.26897358381084 TW-1A 1 40928U 15051D 22216.73864737 .00027401 00000-0 29870-3 0 9996 2 40928 97.0359 239.0815 0007221 180.0149 270.1198 15.63335149385779 IO-86 1 40931U 15052B 22216.33175529 .00000734 00000-0 12978-4 0 9993 2 40931 6.0016 187.4941 0012600 125.8422 234.2832 14.76838117370436 AO-85 1 40967U 15058D 22215.42565291 .00001022 00000-0 12393-3 0 4374 2 40967 64.7772 289.0691 0189323 185.3479 174.5544 14.77601201 67607 ATHENOXAT-1 1 41168U 15077C 22215.95211468 .00006424 00000-0 24074-3 0 9994 2 41168 14.9832 98.0804 0008597 189.6873 272.1554 15.21959619367559 ChubuSat-2 1 41338U 16012B 22216.79687106 .00000868 00000-0 58803-4 0 9996 2 41338 31.0033 76.0452 0013505 272.6543 87.2547 15.01515591354758 ChubuSat-3 1 41339U 16012C 22216.78736265 .00000763 00000-0 50757-4 0 9991 2 41339 31.0120 73.0255 0013396 281.7265 78.1877 15.01582426354750 Horyu-4 1 41340U 16012D 22216.83826114 .00001425 00000-0 95407-4 0 9999 2 41340 31.0051 50.0636 0013400 321.9154 38.0535 15.03548263355012 e-st@r-II 1 41459U 16025D 22216.87046100 .00007473 00000-0 31649-3 0 9993 2 41459 98.1909 25.6512 0143857 105.0310 256.6947 15.14494473344822 AAUSAT4 1 41460U 16025E 22216.65676675 .00010248 00000-0 37863-3 0 9995 2 41460 98.1821 32.0786 0122709 80.2785 281.2293 15.21065814345263 LO-87 1 41557U 16033B 22216.54339387 .00006080 00000-0 17757-3 0 9994 2 41557 97.3904 314.3595 0010452 196.6736 219.5497 15.35638768344769 NuSat2 1 41558U 16033C 22216.85399764 .00006015 00000-0 16548-3 0 9999 2 41558 97.4112 320.6416 0010072 184.7052 324.2042 15.37518796345087 Lapan A3 1 41603U 16040E 22216.87029111 .00000572 00000-0 28914-4 0 9999 2 41603 97.2030 251.7843 0012942 358.1793 124.1071 15.20782824339393 Pratham 1 41783U 16059A 22216.56412661 .00000150 00000-0 37664-4 0 9994 2 41783 97.9103 256.1846 0033900 24.3611 335.9185 14.63394378312668 TY-1 1 41844U 16066D 22216.79548674 .00005986 00000-0 19923-3 0 9998 2 41844 97.3886 228.6114 0014662 113.6370 3.9043 15.31418328319006 CAS-2T 1 41847U 16066G 22216.12532998 .00000389 00000-0 67210-4 0 9995 2 41847 98.5481 280.7368 0364543 67.3851 296.5467 14.38674576301206 EO-88 1 42017U 17008BX 22216.66444007 .00008486 00000-0 24479-3 0 9999 2 42017 97.2655 282.1148 0006334 81.7503 278.4459 15.35925661304476 CAS-4B 1 42759U 17034B 22216.80319015 .00001357 00000-0 90071-4 0 9999 2 42759 43.0177 66.1385 0010158 240.3878 226.3930 15.12179152283672 CAS-4A 1 42761U 17034D 22216.76821656 .00001672 00000-0 10774-3 0 9997 2 42761 43.0178 65.0810 0010294 242.4131 213.9918 15.12267499283673 NIUSat 1 42766U 17036B 22216.56945119 .00004403 00000-0 16824-3 0 9990 2 42766 97.1989 252.6851 0014508 150.0644 210.1428 15.27024976284147 Aalto 1 1 42775U 17036L 22216.69825495 .00003284 00000-0 12956-3 0 9996 2 42775 97.1944 252.6483 0013450 148.7951 211.4090 15.26148017284139 URSA MAIOR 1 42776U 17036M 22216.52959330 .00003739 00000-0 14447-3 0 9997 2 42776 97.1960 253.2636 0013134 147.9356 212.2685 15.26764118284140 Max Valier Sat 1 42778U 17036P 22216.54312663 .00003859 00000-0 14523-3 0 9991 2 42778 97.2020 256.0035 0011884 147.3995 212.7981 15.27638775284242 Pegasus 1 42784U 17036V 22216.72982138 .00005667 00000-0 19896-3 0 9995 2 42784 97.1958 257.1169 0011158 147.1807 213.0129 15.29734187284392 NUDATSat 1 42787U 17036Y 22216.88234397 .00009812 00000-0 28921-3 0 9997 2 42787 97.1994 261.7415 0009822 133.9183 226.2873 15.35169587284525 SUCHAI 1 1 42788U 17036Z 22216.53632669 .00006927 00000-0 22841-3 0 9993 2 42788 97.1965 258.6968 0010599 142.4267 217.7717 15.31694818284543 SKCUBE 1 42789U 17036AA 22216.55806069 .00005922 00000-0 20088-3 0 9998 2 42789 97.1962 258.1279 0010601 143.6302 216.5662 15.30842920284430 VZLUSAT 1 1 42790U 17036AB 22216.56881079 .00010043 00000-0 29768-3 0 9999 2 42790 97.1987 261.3938 0009696 135.0039 225.1991 15.34989334284628 VENTA 1 1 42791U 17036AC 22216.54499158 .00005323 00000-0 18468-3 0 9991 2 42791 97.1965 257.9607 0010338 144.2218 215.9717 15.30159147284412 Robusta 1B 1 42792U 17036AD 22216.69270640 .00006605 00000-0 21974-3 0 9991 2 42792 97.1962 258.8576 0010185 142.7987 217.3962 15.31430246284502 D-SAT 1 42794U 17036AF 22216.67711148 .00000915 00000-0 82068-4 0 9994 2 42794 97.4520 219.5486 0120963 283.9178 74.8612 14.92843515278703 TechnoSat 1 42829U 17042E 22216.57494610 .00000296 00000-0 34323-4 0 9994 2 42829 97.4169 67.8967 0013262 200.3550 159.7142 14.91956650275262 AO-91 1 43017U 17073E 22216.39236652 .00002621 00000-0 19875-3 0 9996 2 43017 97.6688 108.6176 0248637 31.1671 330.4019 14.81697864254217 PICSAT 1 43132U 18004X 22216.50204345 .00006753 00000-0 21772-3 0 9995 2 43132 97.3698 292.6479 0007729 175.7517 184.3792 15.32467379253768 AO-92 1 43137U 18004AC 22216.36885783 .00004786 00000-0 16660-3 0 9999 2 43137 97.3662 291.1143 0007644 179.7461 180.3785 15.30138673253672 TianYi 2 1 43155U 18008A 22216.76959443 .00002988 00000-0 15909-3 0 9999 2 43155 97.3490 273.6236 0015489 342.9553 156.1010 15.15881670250596 Zhou Enlai 1 43156U 18008B 22216.77822258 .00002728 00000-0 14647-3 0 9994 2 43156 97.3534 273.5219 0012741 344.7347 82.8191 15.15692588250521 TianYi 6 1 43158U 18008D 22216.86016536 .00002425 00000-0 13473-3 0 9990 2 43158 97.3496 271.4795 0012452 344.9952 72.0925 15.14566270250432 S-Net D 1 43186U 18014G 22216.72345033 .00000330 00000-0 32771-4 0 9996 2 43186 97.6532 121.5371 0011369 131.5988 228.6210 14.98042106246144 S-Net B 1 43187U 18014H 22216.32287173 .00000293 00000-0 29661-4 0 9995 2 43187 97.6529 121.0935 0011353 132.7423 227.4757 14.98039526246080 S-Net A 1 43188U 18014J 22216.38996345 .00000307 00000-0 30826-4 0 9991 2 43188 97.6533 121.2253 0011351 132.6769 227.5411 14.98039108246096 S-Net C 1 43189U 18014K 22216.52434129 .00000356 00000-0 35005-4 0 9993 2 43189 97.6527 121.2791 0011383 132.3020 227.9169 14.98036170244660 FMN 1 1 43192U 18015A 22216.73211066 .00014737 00000-0 36508-3 0 9990 2 43192 97.5400 3.2362 0010081 212.9384 271.1998 15.40463845250870 Shaonian Xing 1 43199U 18015H 22216.74946944 .00007952 00000-0 23250-3 0 9999 2 43199 97.5197 357.9838 0011925 224.3800 242.8496 15.35489368250853 SurfSat 1 43614U 18070B 22216.52871780 .00023191 00000-0 30339-3 0 9992 2 43614 93.0263 119.2115 0010869 165.0741 195.0847 15.58480944218543 CP-7 DAVE 1 43615U 18070C 22216.51671167 .00020209 00000-0 28073-3 0 9998 2 43615 93.0257 119.0099 0010968 170.0584 190.0899 15.56882112218506 ELFIN-B 1 43616U 18070D 22216.44707510 .00098575 00000-0 59383-3 0 9992 2 43616 93.0141 120.5984 0011617 143.9197 216.2865 15.77317895218890 ELFIN-A 1 43617U 18070E 22216.22695100 .00137533 00000-0 67233-3 0 9991 2 43617 93.0215 121.9956 0011669 138.9851 221.2306 15.81844898218928 CubeBel-1 1 43666U 18083E 22216.86944534 .00004083 00000-0 17153-3 0 9996 2 43666 97.4175 245.0222 0013639 155.9944 329.3201 15.23923752208858 Changshagaoxin 1 43669U 18083H 22216.83385613 .00003784 00000-0 16701-3 0 9998 2 43669 97.4127 240.8150 0010503 152.6305 327.0041 15.22318757208661 Ten-Koh 1 43677U 18084G 22216.32442649 .00000574 00000-0 63578-4 0 9994 2 43677 97.9701 346.8280 0017095 112.1428 248.1606 14.91199887204813 PO-101 1 43678U 18084H 22216.72990434 .00000345 00000-0 39587-4 0 9998 2 43678 97.9770 350.5791 0011032 122.1951 238.0347 14.92236547205059 IRVINE 01 1 43693U 18088D 22216.63587238 .00019184 00000-0 46722-3 0 9992 2 43693 85.0266 278.1037 0008770 282.8646 77.1626 15.40755705207636 QO-100 1 43700U 18090A 22216.55882729 .00000151 00000-0 00000-0 0 9998 2 43700 0.0165 91.0427 0001666 79.1314 9.8848 1.00271308 13514 Reaktor Hello World 1 43743U 18096AA 22216.52596642 .00006102 00000-0 18211-3 0 9992 2 43743 97.3509 296.2195 0013371 242.8351 117.1530 15.34918103205336 MinXSS-2 1 43758U 18099A 22216.82683638 .00000740 00000-0 68082-4 0 9990 2 43758 97.6223 283.5786 0016475 101.3938 258.9136 14.97594780200342 AO-95 1 43770U 18099N 22216.12971232 .00001560 00000-0 14154-3 0 9998 2 43770 97.6182 281.2406 0015768 114.1053 246.1820 14.96624992200143 RANGE-B 1 43772U 18099Q 22216.63799578 .00000891 00000-0 81590-4 0 9992 2 43772 97.6292 283.5261 0014869 99.8267 260.4635 14.97304253200248 RANGE-A 1 43773U 18099R 22216.13241376 .00001215 00000-0 11264-3 0 9997 2 43773 97.6107 280.0488 0014965 102.4131 257.8767 14.96170102200121 MOVE-II 1 43780U 18099Y 22216.18007916 .00001625 00000-0 14218-3 0 9997 2 43780 97.6213 282.5320 0013907 110.5273 249.7443 14.98028012200205 SNUSat 2 1 43782U 18099AA 22216.63961332 .00000665 00000-0 62989-4 0 9992 2 43782 97.6181 282.2127 0013674 99.3385 260.9383 14.96777325200240 SnugLite 1 43784U 18099AC 22216.40277234 .00001651 00000-0 14803-3 0 9997 2 43784 97.6149 281.6161 0016450 106.6728 253.6301 14.97010999200231 ITASat 1 1 43786U 18099AE 22216.11874868 .00000953 00000-0 88133-4 0 9995 2 43786 97.6203 282.1743 0016226 107.9971 252.3021 14.96742515200185 EAGLET 1 1 43790U 18099AJ 22216.40996463 .00001118 00000-0 10222-3 0 9995 2 43790 97.6205 282.9967 0014788 108.8417 251.4410 14.96893627199960 ESEO 1 43792U 18099AL 22216.76492712 -.00000035 00000-0 18765-5 0 9994 2 43792 97.6153 282.4897 0014502 105.8607 254.4215 14.96267599200055 CSIM 1 43793U 18099AM 22216.13192194 .00002181 00000-0 18586-3 0 9999 2 43793 97.6224 283.4259 0014463 103.8151 256.4682 14.98708043200029 Astrocast 0.1 1 43798U 18099AS 22216.16743028 .00000733 00000-0 67037-4 0 9992 2 43798 97.6215 283.2942 0013222 88.2896 271.9841 14.97882137200255 JO-97 1 43803U 18099AX 22216.65475198 .00001333 00000-0 11972-3 0 9996 2 43803 97.6165 282.4657 0016157 105.6548 254.6458 14.97281041200280 Suomi 100 1 43804U 18099AY 22216.47535420 .00001529 00000-0 13692-3 0 9990 2 43804 97.6171 282.2033 0016558 105.1921 255.1133 14.97179873200262 Al Farabi 2 1 43805U 18099AZ 22216.51033879 .00001156 00000-0 10314-3 0 9991 2 43805 97.6168 282.7760 0015540 105.1335 255.1619 14.97791924200299 CHOMPTT 1 43855U 18104G 22216.44943993 .00004355 00000-0 15644-3 0 9997 2 43855 85.0357 19.1288 0017009 64.2085 296.0912 15.28200001202053 ISAT 1 43879U 18111D 22216.68794196 .00001884 00000-0 16331-3 0 9994 2 43879 97.6612 121.4247 0013624 149.6825 210.5188 14.98222457194874 UWE-4 1 43880U 18111E 22216.68639799 .00001757 00000-0 15208-3 0 9994 2 43880 97.6639 122.1533 0012932 150.2554 209.9407 14.98365734194927 Sparrow 1 43881U 18111F 22216.49832213 .00001672 00000-0 14435-3 0 9997 2 43881 97.6666 122.2142 0012875 146.5886 213.6151 14.98537351196901 Lume 1 1 43908U 18111AJ 22216.55623133 .00004505 00000-0 15169-3 0 9996 2 43908 97.1847 102.8609 0016162 261.1960 98.7452 15.31141444200756 FO-99 1 43937U 19003F 22216.52888324 .00006163 00000-0 20282-3 0 9995 2 43937 97.1277 248.0324 0019178 347.4568 12.6195 15.31678725197339 MYSat 1 1 44045U 18092F 22216.35427552 .00031206 00000-0 40356-3 0 9996 2 44045 51.6292 192.9282 0006001 300.1222 59.9176 15.58625362195335 AstroCast 0.2 1 44083U 19018F 22216.58759207 .00004642 00000-0 17400-3 0 9995 2 44083 97.3184 274.5529 0008703 322.8866 37.1771 15.27710517185837 AISTechSat 3 1 44103U 19018AB 22216.69067309 .00004133 00000-0 15274-3 0 9997 2 44103 97.3048 274.9969 0010733 331.4564 28.6087 15.28223042186017 AISat 1 1 44104U 19018AC 22216.32052633 .00003064 00000-0 86198-4 0 9998 2 44104 97.3946 299.6578 0050347 323.2625 36.5171 15.36036871186942 Prox-1 1 44339U 19036A 22216.46878763 .00001400 00000-0 26840-3 0 9992 2 44339 23.9993 250.3079 0011116 26.4618 333.6440 14.55278952165354 Oculus-ASR 1 44348U 19036K 22216.37733317 .00029118 -57973-5 24474-3 0 9991 2 44348 28.5000 220.1997 0225048 131.7498 230.2574 15.41163862171935 Armadillo 1 44352U 19036P 22216.79351419 .00255827 16010-4 54184-3 0 9995 2 44352 28.5177 119.4196 0078988 292.8138 66.4147 15.91820278172915 NO-104 1 44354U 19036R 22216.28413113 .00033225 -58500-5 26481-3 0 9998 2 44354 28.5224 205.5146 0214666 151.9738 209.2607 15.44296442172071 Move-IIb 1 44398U 19038N 22216.90703990 .00005501 00000-0 26130-3 0 9995 2 44398 97.6385 186.7263 0019551 324.1626 35.8296 15.19491196170395 SONATE 1 44400U 19038Q 22216.61199755 .00001984 00000-0 10940-3 0 9998 2 44400 97.6463 185.3491 0022481 330.8978 29.0989 15.14991011170226 BeeSat 9 1 44412U 19038AC 22216.72949151 .00004209 00000-0 21276-3 0 9993 2 44412 97.6384 186.3949 0018940 332.5870 27.4362 15.17477344170010 JAISAT-1 1 44419U 19038F 22216.70013227 .00003601 00000-0 18020-3 0 9992 2 44419 97.6387 187.2400 0017875 329.9665 30.0542 15.17951113170370 LightSail-2 1 44420U 19036AC 22216.31467070 .00035580 00000-0 40493-2 0 9997 2 44420 23.9996 176.4878 0016696 148.0666 212.0846 14.84689748164197 Taurus 1 1 44530U 19059C 22216.75119923 .00000961 00000-0 27514-3 0 9998 2 44530 98.5500 315.7369 0012488 339.4839 20.5852 14.47228361152830 Duchifat 3 1 44854U 19089C 22216.26273403 .00001265 00000-0 10248-3 0 9994 2 44854 36.9659 176.8540 0008986 257.0429 102.9312 15.01326826145121 OPS-SAT 1 44878U 19092F 22216.50326848 .00004198 00000-0 19378-3 0 9994 2 44878 97.4813 40.0624 0012643 166.1057 194.0528 15.20703551145494 TO-108 1 44881U 19093C 22216.86169320 .00000206 00000-0 32730-4 0 9992 2 44881 97.8923 295.3758 0015802 33.2842 326.9354 14.81774547141941 FloripaSat 1 1 44885U 19093G 22216.71518534 .00000733 00000-0 96034-4 0 9997 2 44885 97.8964 296.6415 0015201 40.1714 320.0622 14.83284672142000 RS-44 1 44909U 19096E 22216.42924824 .00000022 00000-0 45960-4 0 9991 2 44909 82.5209 198.4018 0216771 207.2999 151.6577 12.79714157121647 BY70-2 1 45857U 20042B 22216.49384826 .00002736 00000-0 36581-3 0 9998 2 45857 97.9552 292.8903 0009078 328.0116 32.0533 14.80301422112562 UPMSat 2 1 46276U 20061E 22216.15297553 .00001627 00000-0 82159-4 0 9999 2 46276 97.3894 285.8917 0002239 52.8454 307.2984 15.18481957106112 AmicalSat 1 46287U 20061R 22216.62966735 .00002048 00000-0 11938-3 0 9992 2 46287 97.4436 285.2242 0004165 105.2484 254.9208 15.13074546105751 SALSAT 1 46495U 20068K 22216.44553759 .00001248 00000-0 92956-4 0 9999 2 46495 97.7312 157.7699 0017921 113.1127 247.1989 15.04675874101402 BY70-3 1 46839U 20079N 22216.76907363 .00011982 00000-0 26675-3 0 9992 2 46839 97.1950 288.2830 0006576 145.0499 3.5804 15.43747722 97693 CAPE 3 1 47309U 21002A 22216.47138460 .00004906 00000-0 20127-3 0 9998 2 47309 60.6819 183.8314 0029323 11.4328 348.7420 15.25442998 85775 AO-109 1 47311U 21002C 22216.31172333 .00004924 00000-0 19984-3 0 9990 2 47311 60.6843 182.0007 0025419 13.9289 346.2495 15.25894394 85765 MiTEE 1 1 47314U 21002F 22216.85457890 .00010819 00000-0 35997-3 0 9998 2 47314 60.6816 171.9408 0022625 6.2802 353.8568 15.31443879 86000 ExoCube 2 1 47319U 21002L 22216.45532289 .00004697 00000-0 19350-3 0 9997 2 47319 60.6825 182.6328 0026811 14.3391 345.8452 15.25446496 85732 UVSQ-SAT 1 47438U 21006AB 22216.13606768 .00002612 00000-0 13857-3 0 9993 2 47438 97.4338 274.1733 0013452 108.3316 251.9381 15.16147950 84501 YUSAT 1 1 47439U 21006AC 22216.42125452 .00003159 00000-0 16450-3 0 9991 2 47439 97.4345 274.5861 0013220 107.5373 252.7306 15.16665742 84558 SOMP 2b 1 47445U 21006AJ 22216.47487215 .00002424 00000-0 13015-3 0 9999 2 47445 97.4311 274.1302 0013110 110.9888 249.2749 15.15799718 84542 IDEASSat 1 47458U 21006AX 22216.46190598 .00002524 00000-0 13602-3 0 9990 2 47458 97.4401 274.6584 0012320 109.4916 250.7648 15.15638371 84531 CubeSX-Sirius-HSE 1 47951U 21022V 22216.89281531 .00001420 00000-0 96552-4 0 9991 2 47951 97.5249 115.3957 0020812 345.0881 146.9256 15.07771990 75299 CubeSX-HSE 1 47952U 21022W 22216.86576093 .00002253 00000-0 15053-3 0 9990 2 47952 97.5258 115.3913 0020481 344.2857 79.8330 15.07835964 75297 KSU-Cubesat 1 47954U 21022Y 22216.67771543 .00002001 00000-0 13328-3 0 9992 2 47954 97.5257 115.3277 0020100 345.2360 14.8279 15.08092272 74994 GRBAlpha 1 47959U 21022AD 22216.73423265 .00002298 00000-0 15340-3 0 9993 2 47959 97.5261 115.3038 0020304 345.4340 99.5500 15.07863092 74098 Orbicraft-Zorkiy 1 47960U 21022AE 22216.77023668 .00001569 00000-0 10556-3 0 9996 2 47960 97.5280 115.4924 0020334 345.7688 98.4814 15.08023503 74796 STECCO 1 47962U 21022AG 22216.85178716 .00003142 00000-0 19600-3 0 9990 2 47962 97.5248 116.3728 0014943 340.2440 84.2345 15.10156413 74173 DO-111 1 47963U 21022AH 22216.52396501 .00007495 00000-0 40709-3 0 9998 2 47963 97.5267 117.3561 0015432 334.4877 25.5591 15.14704955 74225 MO-110 1 47964U 21022AJ 22216.34222104 .00003427 00000-0 21100-3 0 9991 2 47964 97.5248 116.1572 0017571 337.2198 22.8250 15.10542714 74116 FEES 1 48082U 21022AL 22216.78423261 .00004472 00000-0 26926-3 0 9990 2 48082 97.5258 116.5541 0013551 334.4277 25.6281 15.11247225 73888 RamSat 1 48850U 98067SL 22215.89964536 .00068063 00000-0 39733-3 0 9998 2 48850 51.6357 74.0052 0002674 215.0990 144.9835 15.77751914 64806 TUBIN 1 48900U 21059X 22216.82864368 .00001804 00000-0 10239-3 0 9997 2 48900 97.5601 345.7653 0008687 302.2247 210.5435 15.14212394 61237 IT-SPINS 1 49017U 21013G 22216.29375633 .00004805 00000-0 18981-3 0 9996 2 49017 51.5953 170.5949 0007406 247.7016 112.3178 15.27313277 61097 LEDSAT 1 49069U 21073D 22216.86153283 .00001834 00000-0 11904-3 0 9994 2 49069 97.5222 288.7968 0028258 127.0278 233.3542 15.08984042 53132 CUTE 1 49263U 21088D 22216.18831279 .00001701 00000-0 12920-3 0 9991 2 49263 97.5875 283.1587 0018277 259.8828 100.0335 15.03394768 46590 Binar-1 1 49272U 98067SR 22216.09173215 .00089011 00000-0 48703-3 0 9999 2 49272 51.6316 76.7402 0003804 160.7721 199.3424 15.79084971 47175 Maya-3 1 49273U 98067SS 22215.96002850 .05949751 12250-4 77036-3 0 9997 2 49273 51.6118 65.8640 0012533 271.0179 88.9409 16.34651490 47300 Maya-4 1 49274U 98067ST 22216.62675692 .01284421 12156-2 91164-3 0 9995 2 49274 51.6211 63.6212 0011346 268.8837 91.0880 16.15548662 47394 CUAVA-1 1 49275U 98067SU 22216.61702475 .00239694 32455-4 73518-3 0 9995 2 49275 51.6299 68.8374 0004756 218.6988 176.9449 15.91408076 47272 TeikyoSat 4 1 49396U 21102B 22216.16678771 .00000766 00000-0 64885-4 0 9997 2 49396 97.5245 272.7139 0017278 89.7117 270.6088 15.00710097 40201 Z-Sat 1 49399U 21102E 22216.84326632 .00001461 00000-0 11329-3 0 9998 2 49399 97.5335 274.2934 0023485 66.8976 293.4721 15.02697840 40355 KOSEN 1 1 49402U 21102H 22216.60496547 .00000303 00000-0 26285-4 0 9992 2 49402 97.5263 274.2171 0023767 59.6232 300.7340 15.03783713 40345 HO-113 1 50466U 21131B 22216.86168585 -.00000028 00000-0 55725-5 0 9999 2 50466 98.5793 294.0904 0004603 21.7604 338.3778 14.38512686 31877 Tevel 1 50999U 22002R 22216.72966473 .00002964 00000-0 16026-3 0 9994 2 50999 97.4772 283.0319 0009493 249.1179 207.1116 15.15420101 30735 Grizu-263a 1 51025U 22002AT 22216.15383475 .00005854 00000-0 29295-3 0 9990 2 51025 97.4946 283.3025 0011065 254.2761 105.7252 15.17747082 30677 NO-116 1 51031U 22002AZ 22216.41963420 .00004165 00000-0 21650-3 0 9991 2 51031 97.4902 283.2868 0011355 254.3340 105.6640 15.16572089 30702 IRIS-A 1 51044U 22002BN 22216.39735336 .00001746 00000-0 10039-3 0 9996 2 51044 97.4796 282.4145 0007627 256.2834 103.7548 15.13770968 30666 DELFI-PQ 1 51074U 22002CU 22216.42779900 .00004362 00000-0 21659-3 0 9995 2 51074 97.5032 284.0720 0011861 288.5219 71.4726 15.18160708 30737 SO-115 1 51080U 22002DA 22216.16469167 .00003165 00000-0 16273-3 0 9990 2 51080 97.5045 283.6916 0011770 290.3493 69.6475 15.17146981 30684 SO-114 1 51081U 22002DB 22216.42897171 .00003172 00000-0 16303-3 0 9992 2 51081 97.5037 283.9307 0012074 289.0334 70.9591 15.17152288 30726 OreSat0 1 52017U 22026K 22216.50127645 .00002957 00000-0 15807-3 0 9997 2 52017 97.5037 215.7433 0028922 107.0440 253.3965 15.15510956 21466 Planetum 1 1 52738U 22057G 22216.55990365 .00002003 00000-0 11931-3 0 9999 2 52738 97.5161 330.4428 0008506 17.2267 342.9251 15.12326044 10706 Foresail-1 1 52766U 22057AL 22216.51031333 .00001967 00000-0 11312-3 0 9998 2 52766 97.5265 330.6276 0013190 354.3959 70.1994 15.13576502 10704 SNUGLITE 2 1 52899U 22065F 22216.87207450 .00000232 00000-0 59616-4 0 9992 2 52899 98.0250 6.6103 0009331 119.8068 240.4061 14.58372838 4756 CTIM 1 52950U 22074G 22216.56760783 .00005982 00000-0 25309-3 0 9997 2 52950 45.0232 297.1091 0001003 34.0769 326.0184 15.24110966 5072 MTCube 2 1 53106U 22080B 22211.33861881 -.00000003 00000-0 00000 0 0 9996 2 53106 70.1538 71.5470 0009035 255.0213 104.9458 6.42558285 1074 AstroBioCubeSat 1 53107U 22080C 22211.19450190 -.00000003 00000-0 00000 0 0 9998 2 53107 70.1558 71.6142 0012997 246.8630 113.0689 6.42110697 961 GREENCUBE 1 53109U 22080E 22216.62957338 -.00000003 00000-0 00000 0 0 9999 2 53109 70.1371 69.5122 0009161 238.8412 121.1355 6.42583806 1303 CELESTA 1 53111U 22080G 22209.16019017 -.00000003 00000-0 00000-0 0 9997 2 53111 70.1517 72.3224 0015664 220.2144 139.7964 6.42532870 816 RS4S 1 53306U 98067TR 22216.53649781 .00021546 00000-0 37259-3 0 9990 2 53306 51.6417 97.0459 0004041 90.1605 269.9848 15.50886290 2166 RS3S 1 53308U 98067TT 22216.14950158 .00022155 00000-0 38260-3 0 9992 2 53308 51.6412 98.9619 0003768 82.4221 277.7196 15.50907654 2165 RS1S 1 53309U 98067TU 22216.79361830 .00023364 00000-0 40205-3 0 9992 2 53309 51.6414 95.7629 0004434 95.5112 264.6384 15.50970842 2218 RS5S 1 53310U 98067TV 22216.14916292 .00021073 00000-0 36398-3 0 9994 2 53310 51.6416 98.9594 0004098 94.1723 265.9735 15.50935140 2145 RS6S 1 53311U 98067TW 22216.14879279 .00023076 00000-0 39674-3 0 9993 2 53311 51.6411 98.9566 0003540 77.4993 282.6392 15.51006853 2162 RS9S 1 53312U 98067TX 22216.08438889 .00022377 00000-0 38517-3 0 9993 2 53312 51.6415 99.2759 0004688 94.7701 265.3824 15.50990255 2095 RS12S 1 53313U 98067TY 22216.08403726 .00022725 00000-0 39049-3 0 9994 2 53313 51.6415 99.2743 0004211 98.7683 261.3783 15.51029779 2145 /EX